Time,TemperatureF,DewpointF,PressureIn,WindDirection,WindDirectionDegrees,WindSpeedMPH,WindSpeedGustMPH,Humidity,HourlyPrecipIn,Conditions,Clouds,dailyrainin,SoftwareType,DateUTC
2013-03-11 00:00:00,42.4,40.8,30.25,SE,136,7.0,9.0,94,0.00,,,0.00,VWS V14.01,2013-03-11 04:00:00,
2013-03-11 00:05:00,42.3,40.7,30.25,SE,135,6.0,10.0,94,0.00,,,0.00,VWS V14.01,2013-03-11 04:05:00,
2013-03-11 00:10:00,42.3,41.0,30.25,SE,138,7.0,9.0,95,0.00,,,0.00,VWS V14.01,2013-03-11 04:10:00,
2013-03-11 00:15:00,42.3,41.0,30.25,SE,142,6.0,10.0,95,0.00,,,0.00,VWS V14.01,2013-03-11 04:15:00,
2013-03-11 00:20:00,42.3,41.0,30.25,SE,139,8.0,11.0,95,0.00,,,0.00,VWS V14.01,2013-03-11 04:20:00,
2013-03-11 00:25:00,42.3,41.0,30.24,SE,138,10.0,11.0,95,0.00,,,0.00,VWS V14.01,2013-03-11 04:25:00,
2013-03-11 00:30:00,42.2,40.9,30.24,SE,137,10.0,12.0,95,0.00,,,0.00,VWS V14.01,2013-03-11 04:30:00,
2013-03-11 00:35:00,42.2,40.9,30.24,SE,144,11.0,11.0,95,0.00,,,0.00,VWS V14.01,2013-03-11 04:35:00,
2013-03-11 00:40:00,42.1,40.8,30.24,SE,139,10.0,10.0,95,0.00,,,0.00,VWS V14.01,2013-03-11 04:40:00,
2013-03-11 00:45:00,42.1,40.8,30.24,SE,140,5.0,7.0,95,0.00,,,0.00,VWS V14.01,2013-03-11 04:45:00,
2013-03-11 00:51:00,42.0,40.7,30.24,SE,140,9.0,9.0,95,0.00,,,0.00,VWS V14.01,2013-03-11 04:51:00,
2013-03-11 00:56:00,42.0,40.7,30.24,SSE,147,9.0,9.0,95,0.00,,,0.00,VWS V14.01,2013-03-11 04:56:00,
2013-03-11 01:01:00,42.0,40.7,30.24,SE,146,6.0,11.0,95,0.00,,,0.00,VWS V14.01,2013-03-11 05:01:00,
2013-03-11 01:06:00,42.0,40.7,30.24,SE,146,5.0,10.0,95,0.00,,CLR,0.00,VWS V14.01,2013-03-11 05:06:00,
2013-03-11 01:11:00,41.9,40.6,30.24,SE,146,5.0,7.0,95,0.00,,CLR,0.00,VWS V14.01,2013-03-11 05:11:00,
2013-03-11 01:16:00,41.8,40.5,30.25,SSE,158,6.0,6.0,95,0.00,,CLR,0.00,VWS V14.01,2013-03-11 05:16:00,
2013-03-11 01:21:00,41.7,40.4,30.24,SSE,161,5.0,6.0,95,0.00,,CLR,0.00,VWS V14.01,2013-03-11 05:21:00,
2013-03-11 01:26:00,41.9,40.8,30.24,SSE,160,6.0,9.0,96,0.00,,CLR,0.00,VWS V14.01,2013-03-11 05:26:00,
2013-03-11 01:31:00,41.9,40.8,30.24,SSE,155,9.0,10.0,96,0.00,,CLR,0.00,VWS V14.01,2013-03-11 05:31:00,
2013-03-11 01:36:00,42.0,40.9,30.23,SSE,160,9.0,10.0,96,0.00,,SCT004,0.00,VWS V14.01,2013-03-11 05:36:00,
2013-03-11 01:41:00,42.1,41.0,30.23,SSE,156,6.0,10.0,96,0.00,,SCT004,0.00,VWS V14.01,2013-03-11 05:41:00,
2013-03-11 01:46:00,42.1,41.0,30.23,SSE,167,7.0,9.0,96,0.00,,SCT004,0.00,VWS V14.01,2013-03-11 05:46:00,
2013-03-11 01:52:00,42.0,40.9,30.23,SSE,155,6.0,9.0,96,0.00,,SCT004,0.00,VWS V14.01,2013-03-11 05:52:00,
2013-03-11 01:57:00,42.0,40.9,30.23,SSE,157,7.0,9.0,96,0.00,,SCT004,0.00,VWS V14.01,2013-03-11 05:57:00,
2013-03-11 02:02:00,42.0,40.9,30.23,SSE,159,7.0,11.0,96,0.00,,SCT004,0.00,VWS V14.01,2013-03-11 06:02:00,
2013-03-11 02:07:00,42.0,40.9,30.23,SSE,158,7.0,10.0,96,0.00,,,0.00,VWS V14.01,2013-03-11 06:07:00,
2013-03-11 02:12:00,42.0,40.9,30.22,SSE,160,7.0,7.0,96,0.00,,,0.00,VWS V14.01,2013-03-11 06:12:00,
2013-03-11 02:17:00,41.9,40.8,30.23,SSE,160,6.0,7.0,96,0.00,,,0.00,VWS V14.01,2013-03-11 06:17:00,
2013-03-11 02:22:00,41.8,40.8,30.22,SSE,157,6.0,7.0,96,0.00,,,0.00,VWS V14.01,2013-03-11 06:22:00,
2013-03-11 02:27:00,41.8,40.8,30.22,SSE,155,5.0,6.0,96,0.00,,,0.00,VWS V14.01,2013-03-11 06:27:00,
2013-03-11 02:32:00,41.8,40.8,30.22,SSE,163,6.0,7.0,96,0.00,,,0.00,VWS V14.01,2013-03-11 06:32:00,
2013-03-11 02:37:00,41.8,40.8,30.22,SSE,164,4.0,6.0,96,0.00,,,0.00,VWS V14.01,2013-03-11 06:37:00,
2013-03-11 02:42:00,42.0,40.9,30.22,SSW,200,5.0,7.0,96,0.00,,,0.00,VWS V14.01,2013-03-11 06:42:00,
2013-03-11 02:47:00,42.0,40.9,30.22,South,174,7.0,10.0,96,0.00,,,0.00,VWS V14.01,2013-03-11 06:47:00,
2013-03-11 02:52:00,42.1,41.0,30.22,South,177,7.0,7.0,96,0.00,,,0.00,VWS V14.01,2013-03-11 06:52:00,
2013-03-11 02:57:00,42.2,41.1,30.22,South,171,5.0,7.0,96,0.00,,,0.00,VWS V14.01,2013-03-11 06:57:00,
2013-03-11 03:02:00,42.2,41.1,30.22,South,169,9.0,9.0,96,0.00,,,0.00,VWS V14.01,2013-03-11 07:02:00,
2013-03-11 03:07:00,42.2,41.1,30.21,South,180,4.0,9.0,96,0.00,,,0.00,VWS V14.01,2013-03-11 07:07:00,
2013-03-11 03:13:00,42.1,41.0,30.21,South,174,5.0,10.0,96,0.00,,,0.00,VWS V14.01,2013-03-11 07:13:00,
2013-03-11 03:18:00,41.9,40.8,30.20,SSE,166,8.0,9.0,96,0.00,,,0.00,VWS V14.01,2013-03-11 07:18:00,
2013-03-11 03:23:00,42.0,41.2,30.21,SSE,161,5.0,7.0,97,0.00,,,0.00,VWS V14.01,2013-03-11 07:23:00,
2013-03-11 03:28:00,42.0,40.9,30.20,SSE,166,4.0,6.0,96,0.00,,,0.00,VWS V14.01,2013-03-11 07:28:00,
2013-03-11 03:33:00,41.9,40.8,30.20,South,174,4.0,6.0,96,0.00,,,0.00,VWS V14.01,2013-03-11 07:33:00,
2013-03-11 03:38:00,41.9,41.1,30.20,South,182,3.0,6.0,97,0.00,,,0.00,VWS V14.01,2013-03-11 07:38:00,
2013-03-11 03:43:00,41.9,41.1,30.20,South,173,2.0,3.0,97,0.00,,,0.00,VWS V14.01,2013-03-11 07:43:00,
2013-03-11 03:48:00,41.8,40.8,30.20,South,175,3.0,4.0,96,0.00,,,0.00,VWS V14.01,2013-03-11 07:48:00,
2013-03-11 03:53:00,41.7,40.7,30.20,South,181,0.0,0.0,96,0.00,,,0.00,VWS V14.01,2013-03-11 07:53:00,
2013-03-11 03:58:00,41.7,40.9,30.20,South,174,4.0,4.0,97,0.00,,,0.00,VWS V14.01,2013-03-11 07:58:00,
2013-03-11 04:03:00,41.6,40.5,30.19,South,174,3.0,5.0,96,0.00,,,0.00,VWS V14.01,2013-03-11 08:03:00,
2013-03-11 04:08:00,41.5,40.5,30.19,SSE,161,5.0,6.0,96,0.00,,,0.00,VWS V14.01,2013-03-11 08:08:00,
2013-03-11 04:13:00,41.5,40.5,30.18,SSE,154,3.0,4.0,96,0.00,,,0.00,VWS V14.01,2013-03-11 08:13:00,
2013-03-11 04:18:00,41.4,40.6,30.18,SSE,154,4.0,5.0,97,0.00,,,0.00,VWS V14.01,2013-03-11 08:18:00,
2013-03-11 04:23:00,41.3,40.5,30.18,SSE,154,4.0,4.0,97,0.00,,,0.00,VWS V14.01,2013-03-11 08:23:00,
2013-03-11 04:28:00,41.4,40.6,30.19,SSE,154,0.0,3.0,97,0.00,,,0.00,VWS V14.01,2013-03-11 08:28:00,
2013-03-11 04:33:00,41.4,40.6,30.18,SSE,154,0.0,0.0,97,0.00,,,0.00,VWS V14.01,2013-03-11 08:33:00,
2013-03-11 04:38:00,41.2,40.4,30.19,SSE,154,0.0,0.0,97,0.00,,,0.00,VWS V14.01,2013-03-11 08:38:00,
2013-03-11 04:43:00,41.0,40.0,30.19,SSE,154,0.0,0.0,96,0.00,,,0.00,VWS V14.01,2013-03-11 08:43:00,
2013-03-11 04:48:00,40.7,39.7,30.19,SSE,154,0.0,0.0,96,0.00,,,0.00,VWS V14.01,2013-03-11 08:48:00,
2013-03-11 04:53:00,40.8,40.0,30.18,SSE,154,0.0,0.0,97,0.00,,,0.00,VWS V14.01,2013-03-11 08:53:00,
2013-03-11 04:58:00,41.0,40.2,30.18,SSE,154,0.0,0.0,97,0.00,,,0.00,VWS V14.01,2013-03-11 08:58:00,
2013-03-11 05:03:00,41.0,40.2,30.19,SSE,154,0.0,0.0,97,0.00,,,0.00,VWS V14.01,2013-03-11 09:03:00,
2013-03-11 05:08:00,41.1,40.3,30.19,SSE,154,0.0,0.0,97,0.00,,,0.00,VWS V14.01,2013-03-11 09:08:00,
2013-03-11 05:13:00,41.3,40.5,30.19,SSE,154,1.0,4.0,97,0.00,,,0.00,VWS V14.01,2013-03-11 09:13:00,
2013-03-11 05:18:00,41.6,40.8,30.18,SSE,168,3.0,5.0,97,0.00,,,0.00,VWS V14.01,2013-03-11 09:18:00,
2013-03-11 05:23:00,41.7,40.9,30.18,SSE,167,3.0,5.0,97,0.00,,,0.00,VWS V14.01,2013-03-11 09:23:00,
2013-03-11 05:28:00,41.8,41.0,30.18,South,170,6.0,6.0,97,0.00,,,0.00,VWS V14.01,2013-03-11 09:28:00,
2013-03-11 05:33:00,41.8,41.0,30.18,SSE,165,3.0,6.0,97,0.00,,,0.00,VWS V14.01,2013-03-11 09:33:00,
2013-03-11 05:38:00,41.9,41.1,30.18,SSE,167,0.0,5.0,97,0.00,,,0.00,VWS V14.01,2013-03-11 09:38:00,
2013-03-11 05:43:00,41.8,41.0,30.18,South,178,3.0,7.0,97,0.00,,,0.00,VWS V14.01,2013-03-11 09:43:00,
2013-03-11 05:48:00,41.8,41.0,30.19,SSE,159,0.0,2.0,97,0.00,,,0.00,VWS V14.01,2013-03-11 09:48:00,
2013-03-11 05:53:00,41.8,41.0,30.19,South,173,0.0,0.0,97,0.00,,,0.00,VWS V14.01,2013-03-11 09:53:00,
2013-03-11 05:58:00,41.8,41.0,30.18,SSE,159,2.0,6.0,97,0.00,,,0.00,VWS V14.01,2013-03-11 09:58:00,
2013-03-11 06:03:00,41.9,41.1,30.18,South,178,3.0,4.0,97,0.00,,,0.00,VWS V14.01,2013-03-11 10:03:00,
2013-03-11 06:09:00,41.9,41.1,30.18,SSE,165,5.0,6.0,97,0.00,,,0.00,VWS V14.01,2013-03-11 10:09:00,
2013-03-11 06:13:00,42.0,41.2,30.18,SSE,166,5.0,5.0,97,0.00,,,0.00,VWS V14.01,2013-03-11 10:13:00,
2013-03-11 06:19:00,42.2,41.4,30.18,South,171,4.0,5.0,97,0.00,,,0.00,VWS V14.01,2013-03-11 10:19:00,
2013-03-11 06:24:00,42.2,41.4,30.18,SSE,167,3.0,5.0,97,0.00,,,0.00,VWS V14.01,2013-03-11 10:24:00,
2013-03-11 06:29:00,42.3,41.8,30.18,SSE,161,0.0,6.0,98,0.00,,,0.00,VWS V14.01,2013-03-11 10:29:00,
2013-03-11 06:34:00,42.3,41.8,30.18,SSE,163,4.0,7.0,98,0.00,,,0.00,VWS V14.01,2013-03-11 10:34:00,
2013-03-11 06:39:00,42.4,41.9,30.18,SSE,168,3.0,6.0,98,0.00,,,0.00,VWS V14.01,2013-03-11 10:39:00,
2013-03-11 06:44:00,42.4,41.9,30.18,SSE,154,5.0,6.0,98,0.00,,,0.00,VWS V14.01,2013-03-11 10:44:00,
2013-03-11 06:49:00,42.5,42.0,30.18,SSE,155,5.0,7.0,98,0.00,,,0.00,VWS V14.01,2013-03-11 10:49:00,
2013-03-11 06:54:00,42.5,42.0,30.18,South,171,5.0,7.0,98,0.00,,,0.00,VWS V14.01,2013-03-11 10:54:00,
2013-03-11 06:59:00,42.4,41.9,30.17,South,174,4.0,10.0,98,0.00,,,0.00,VWS V14.01,2013-03-11 10:59:00,
2013-03-11 07:04:00,42.4,41.9,30.17,South,177,0.0,5.0,98,0.00,,,0.00,VWS V14.01,2013-03-11 11:04:00,
2013-03-11 07:09:00,42.4,41.9,30.18,SSE,158,3.0,6.0,98,0.00,,,0.00,VWS V14.01,2013-03-11 11:09:00,
2013-03-11 07:14:00,42.3,41.8,30.18,SSE,168,3.0,5.0,98,0.00,,,0.00,VWS V14.01,2013-03-11 11:14:00,
2013-03-11 07:19:00,42.3,41.8,30.18,South,184,0.0,5.0,98,0.00,,,0.00,VWS V14.01,2013-03-11 11:19:00,
2013-03-11 07:24:00,42.3,41.8,30.18,South,173,4.0,5.0,98,0.00,,,0.00,VWS V14.01,2013-03-11 11:24:00,
2013-03-11 07:29:00,42.3,41.8,30.19,SSE,152,4.0,5.0,98,0.00,,,0.00,VWS V14.01,2013-03-11 11:29:00,
2013-03-11 07:34:00,42.4,41.9,30.19,SSE,166,6.0,6.0,98,0.00,,,0.00,VWS V14.01,2013-03-11 11:34:00,
2013-03-11 07:39:00,42.4,41.9,30.19,SSE,154,7.0,9.0,98,0.00,,,0.00,VWS V14.01,2013-03-11 11:39:00,
2013-03-11 07:44:00,42.4,41.9,30.19,SSE,166,6.0,6.0,98,0.00,,,0.00,VWS V14.01,2013-03-11 11:44:00,
2013-03-11 07:49:00,42.4,41.9,30.18,SSE,164,7.0,10.0,98,0.00,,,0.00,VWS V14.01,2013-03-11 11:49:00,
2013-03-11 07:54:00,42.4,41.9,30.18,South,169,5.0,6.0,98,0.00,,,0.00,VWS V14.01,2013-03-11 11:54:00,
2013-03-11 07:59:00,42.4,41.9,30.18,South,184,3.0,5.0,98,0.00,,,0.00,VWS V14.01,2013-03-11 11:59:00,
2013-03-11 08:04:00,42.4,41.9,30.18,SSE,159,4.0,5.0,98,0.00,,,0.00,VWS V14.01,2013-03-11 12:04:00,
2013-03-11 08:09:00,42.4,41.9,30.18,SSE,168,0.0,4.0,98,0.00,,,0.00,VWS V14.01,2013-03-11 12:09:00,
2013-03-11 08:14:00,42.4,41.9,30.17,SSE,166,4.0,5.0,98,0.00,,,0.00,VWS V14.01,2013-03-11 12:14:00,
2013-03-11 08:20:00,42.4,41.9,30.17,South,171,4.0,5.0,98,0.00,,,0.00,VWS V14.01,2013-03-11 12:20:00,
2013-03-11 08:25:00,42.4,41.9,30.17,South,171,0.0,0.0,98,0.00,,,0.00,VWS V14.01,2013-03-11 12:25:00,
2013-03-11 08:30:00,42.4,41.9,30.17,South,171,5.0,5.0,98,0.00,,,0.00,VWS V14.01,2013-03-11 12:30:00,
2013-03-11 08:35:00,42.5,42.0,30.17,South,171,4.0,4.0,98,0.00,,,0.00,VWS V14.01,2013-03-11 12:35:00,
2013-03-11 08:40:00,42.7,42.2,30.17,SSE,167,5.0,6.0,98,0.00,,,0.00,VWS V14.01,2013-03-11 12:40:00,
2013-03-11 08:45:00,42.8,42.3,30.17,SSE,167,6.0,6.0,98,0.00,,,0.00,VWS V14.01,2013-03-11 12:45:00,
2013-03-11 08:50:00,43.0,42.5,30.17,SSE,153,4.0,7.0,98,0.00,,,0.00,VWS V14.01,2013-03-11 12:50:00,
2013-03-11 08:55:00,43.1,42.6,30.17,South,173,5.0,7.0,98,0.00,,,0.00,VWS V14.01,2013-03-11 12:55:00,
2013-03-11 09:00:00,43.2,42.7,30.18,SSE,164,3.0,5.0,98,0.00,,,0.00,VWS V14.01,2013-03-11 13:00:00,
2013-03-11 09:05:00,43.4,42.9,30.19,South,173,5.0,5.0,98,0.00,,,0.00,VWS V14.01,2013-03-11 13:05:00,
2013-03-11 09:10:00,43.6,43.1,30.19,SW,221,6.0,6.0,98,0.00,,,0.00,VWS V14.01,2013-03-11 13:10:00,
2013-03-11 09:15:00,43.5,43.0,30.19,SSW,203,2.0,4.0,98,0.00,,,0.00,VWS V14.01,2013-03-11 13:15:00,
2013-03-11 09:20:00,43.4,42.9,30.19,SW,226,4.0,5.0,98,0.00,,,0.00,VWS V14.01,2013-03-11 13:20:00,
2013-03-11 09:25:00,43.2,42.7,30.19,SW,225,4.0,4.0,98,0.00,,,0.00,VWS V14.01,2013-03-11 13:25:00,
2013-03-11 09:30:00,43.1,42.6,30.19,WSW,237,5.0,6.0,98,0.00,,,0.00,VWS V14.01,2013-03-11 13:30:00,
2013-03-11 09:35:00,43.1,42.6,30.19,SW,218,4.0,5.0,98,0.00,,,0.00,VWS V14.01,2013-03-11 13:35:00,
2013-03-11 09:40:00,43.3,42.8,30.19,SSE,162,4.0,7.0,98,0.00,,,0.00,VWS V14.01,2013-03-11 13:40:00,
2013-03-11 09:45:00,43.5,43.0,30.19,South,178,2.0,3.0,98,0.00,,,0.00,VWS V14.01,2013-03-11 13:45:00,
2013-03-11 09:50:00,43.6,43.1,30.19,South,177,4.0,6.0,98,0.00,,,0.00,VWS V14.01,2013-03-11 13:50:00,
2013-03-11 09:55:00,43.6,43.1,30.18,South,170,6.0,7.0,98,0.00,,,0.00,VWS V14.01,2013-03-11 13:55:00,
2013-03-11 10:00:00,43.6,43.1,30.18,South,173,5.0,9.0,98,0.00,,,0.00,VWS V14.01,2013-03-11 14:00:00,
2013-03-11 10:05:00,43.8,43.3,30.17,SSE,167,7.0,10.0,98,0.00,,,0.00,VWS V14.01,2013-03-11 14:05:00,
2013-03-11 10:10:00,43.9,43.6,30.17,SSE,163,7.0,10.0,99,0.00,,,0.00,VWS V14.01,2013-03-11 14:10:00,
2013-03-11 10:15:00,43.9,43.4,30.17,South,171,11.0,11.0,98,0.00,,,0.00,VWS V14.01,2013-03-11 14:15:00,
2013-03-11 10:20:00,43.8,43.3,30.17,South,175,8.0,13.0,98,0.00,,,0.00,VWS V14.01,2013-03-11 14:20:00,
2013-03-11 10:25:00,44.0,43.7,30.17,South,179,8.0,9.0,99,0.00,,,0.00,VWS V14.01,2013-03-11 14:25:00,
2013-03-11 10:30:00,44.1,43.8,30.17,SSE,167,7.0,10.0,99,0.00,,,0.00,VWS V14.01,2013-03-11 14:30:00,
2013-03-11 10:35:00,44.3,43.8,30.17,South,169,10.0,10.0,98,0.00,,,0.00,VWS V14.01,2013-03-11 14:35:00,
2013-03-11 10:40:00,44.4,43.9,30.17,SSE,168,6.0,10.0,98,0.00,,,0.00,VWS V14.01,2013-03-11 14:40:00,
2013-03-11 10:45:00,44.5,44.2,30.16,South,169,5.0,10.0,99,0.00,,,0.00,VWS V14.01,2013-03-11 14:45:00,
2013-03-11 10:50:00,44.6,44.3,30.16,SSE,167,6.0,10.0,99,0.00,,,0.00,VWS V14.01,2013-03-11 14:50:00,
2013-03-11 10:55:00,44.7,44.4,30.16,SSE,167,7.0,10.0,99,0.00,,,0.00,VWS V14.01,2013-03-11 14:55:00,
2013-03-11 11:00:00,44.8,44.5,30.15,SSE,154,7.0,9.0,99,0.00,,,0.00,VWS V14.01,2013-03-11 15:00:00,
2013-03-11 11:05:00,44.8,44.3,30.15,SSE,159,7.0,8.0,98,0.00,,,0.00,VWS V14.01,2013-03-11 15:05:00,
2013-03-11 11:10:00,44.8,44.3,30.15,South,175,4.0,7.0,98,0.00,,,0.00,VWS V14.01,2013-03-11 15:10:00,
2013-03-11 11:15:00,45.3,45.0,30.15,South,171,6.0,7.0,99,0.00,,,0.00,VWS V14.01,2013-03-11 15:15:00,
2013-03-11 11:20:00,45.5,45.2,30.15,SSE,163,6.0,9.0,99,0.00,,,0.00,VWS V14.01,2013-03-11 15:20:00,
2013-03-11 11:25:00,45.4,44.9,30.14,SSE,155,6.0,8.0,98,0.00,,,0.00,VWS V14.01,2013-03-11 15:25:00,
2013-03-11 11:30:00,45.6,45.3,30.15,SSE,157,8.0,8.0,99,0.00,,,0.00,VWS V14.01,2013-03-11 15:30:00,
2013-03-11 11:35:00,45.7,45.4,30.15,SSE,164,5.0,7.0,99,0.00,,OVC006,0.00,VWS V14.01,2013-03-11 15:35:00,
2013-03-11 11:40:00,45.9,45.6,30.15,SSE,162,7.0,11.0,99,0.00,,OVC006,0.00,VWS V14.01,2013-03-11 15:40:00,
2013-03-11 11:45:00,46.6,46.3,30.15,SSE,166,6.0,7.0,99,0.00,,OVC006,0.00,VWS V14.01,2013-03-11 15:45:00,
2013-03-11 11:50:00,46.6,46.3,30.15,SE,128,4.0,5.0,99,0.00,,OVC006,0.00,VWS V14.01,2013-03-11 15:50:00,
2013-03-11 11:56:00,46.0,45.5,30.15,SE,129,4.0,4.0,98,0.00,,OVC006,0.00,VWS V14.01,2013-03-11 15:56:00,
2013-03-11 12:00:00,46.7,46.4,30.15,SSE,167,3.0,11.0,99,0.00,,OVC006,0.00,VWS V14.01,2013-03-11 16:00:00,
2013-03-11 12:06:00,47.4,47.1,30.15,South,173,4.0,11.0,99,0.00,,OVC006,0.00,VWS V14.01,2013-03-11 16:06:00,
2013-03-11 12:11:00,47.8,47.5,30.15,SSE,166,3.0,10.0,99,0.00,,OVC006,0.00,VWS V14.01,2013-03-11 16:11:00,
2013-03-11 12:16:00,48.1,47.8,30.15,SSE,163,5.0,9.0,99,0.00,,OVC006,0.00,VWS V14.01,2013-03-11 16:16:00,
2013-03-11 12:21:00,48.2,47.7,30.15,South,171,9.0,9.0,98,0.00,,OVC006,0.00,VWS V14.01,2013-03-11 16:21:00,
2013-03-11 12:26:00,48.5,48.0,30.15,South,184,5.0,6.0,98,0.00,,OVC006,0.00,VWS V14.01,2013-03-11 16:26:00,
2013-03-11 12:31:00,48.7,48.2,30.15,South,176,6.0,9.0,98,0.00,,OVC006,0.00,VWS V14.01,2013-03-11 16:31:00,
2013-03-11 13:19:00,48.7,46.8,30.12,South,181,5.0,13.0,93,0.00,,BKN110,0.00,VWS V14.01,2013-03-11 17:19:00,
2013-03-11 13:24:00,49.2,47.3,30.11,South,178,9.0,12.0,93,0.00,,BKN110,0.00,VWS V14.01,2013-03-11 17:24:00,
2013-03-11 13:29:00,49.4,47.2,30.11,SSE,164,6.0,9.0,92,0.00,,BKN110,0.00,VWS V14.01,2013-03-11 17:29:00,
2013-03-11 13:35:00,49.4,47.2,30.11,South,171,6.0,8.0,92,0.00,,BKN110,0.00,VWS V14.01,2013-03-11 17:35:00,
2013-03-11 13:40:00,49.4,46.9,30.11,South,181,10.0,12.0,91,0.00,,BKN110,0.00,VWS V14.01,2013-03-11 17:40:00,
2013-03-11 13:45:00,49.9,47.7,30.10,South,171,9.0,9.0,92,0.00,,BKN110,0.00,VWS V14.01,2013-03-11 17:45:00,
2013-03-11 13:50:00,50.3,47.5,30.10,SSE,165,5.0,7.0,90,0.00,,BKN110,0.00,VWS V14.01,2013-03-11 17:50:00,
2013-03-11 13:55:00,50.1,47.6,30.10,South,181,6.0,6.0,91,0.00,,BKN110,0.00,VWS V14.01,2013-03-11 17:55:00,
2013-03-11 14:00:00,50.4,47.9,30.10,South,185,7.0,7.0,91,0.00,,BKN110,0.00,VWS V14.01,2013-03-11 18:00:00,
2013-03-11 14:05:00,50.6,47.8,30.09,SSE,167,6.0,9.0,90,0.00,,BKN110,0.00,VWS V14.01,2013-03-11 18:05:00,
2013-03-11 14:10:00,50.7,47.6,30.09,SSE,164,7.0,9.0,89,0.00,,BKN110,0.00,VWS V14.01,2013-03-11 18:10:00,
2013-03-11 14:15:00,50.8,48.3,30.08,SSE,163,6.0,9.0,91,0.00,,BKN110,0.00,VWS V14.01,2013-03-11 18:15:00,
2013-03-11 14:20:00,51.5,49.0,30.08,South,181,7.0,9.0,91,0.00,,BKN110,0.00,VWS V14.01,2013-03-11 18:20:00,
2013-03-11 14:25:00,52.0,48.9,30.08,SSE,165,3.0,6.0,89,0.00,,BKN110,0.00,VWS V14.01,2013-03-11 18:25:00,
2013-03-11 14:30:00,52.2,49.1,30.08,South,175,5.0,9.0,89,0.00,,BKN110,0.00,VWS V14.01,2013-03-11 18:30:00,
2013-03-11 14:35:00,52.5,49.0,30.08,South,169,8.0,10.0,88,0.00,,BKN180,0.00,VWS V14.01,2013-03-11 18:35:00,
2013-03-11 14:40:00,53.0,49.2,30.07,South,177,5.0,9.0,87,0.00,,BKN180,0.00,VWS V14.01,2013-03-11 18:40:00,
2013-03-11 14:45:00,53.4,49.3,30.07,South,179,6.0,10.0,86,0.00,,BKN180,0.00,VWS V14.01,2013-03-11 18:45:00,
2013-03-11 14:50:00,53.5,49.4,30.07,SSE,159,8.0,10.0,86,0.00,,BKN180,0.00,VWS V14.01,2013-03-11 18:50:00,
2013-03-11 14:55:00,53.5,48.8,30.06,South,170,12.0,14.0,84,0.00,,BKN180,0.00,VWS V14.01,2013-03-11 18:55:00,
2013-03-11 15:00:00,53.5,49.4,30.06,SSE,156,10.0,11.0,86,0.00,,BKN180,0.00,VWS V14.01,2013-03-11 19:00:00,
2013-03-11 15:05:00,53.7,49.3,30.06,SSE,161,9.0,13.0,85,0.00,,BKN180,0.00,VWS V14.01,2013-03-11 19:05:00,
2013-03-11 15:10:00,53.8,49.4,30.06,SSE,168,5.0,11.0,85,0.00,,BKN180,0.00,VWS V14.01,2013-03-11 19:10:00,
2013-03-11 15:15:00,54.1,49.7,30.06,SSW,200,7.0,12.0,85,0.00,,BKN180,0.00,VWS V14.01,2013-03-11 19:15:00,
2013-03-11 15:20:00,54.5,49.8,30.06,SE,127,6.0,11.0,84,0.00,,BKN180,0.00,VWS V14.01,2013-03-11 19:20:00,
2013-03-11 15:25:00,54.5,49.5,30.06,South,191,6.0,12.0,83,0.00,,BKN180,0.00,VWS V14.01,2013-03-11 19:25:00,
2013-03-11 15:30:00,54.5,49.8,30.06,South,191,4.0,12.0,84,0.00,,BKN180,0.00,VWS V14.01,2013-03-11 19:30:00,
2013-03-11 15:35:00,54.7,50.0,30.06,South,172,9.0,14.0,84,0.00,,OVC200,0.00,VWS V14.01,2013-03-11 19:35:00,
2013-03-11 15:40:00,54.9,49.8,30.06,SSE,164,9.0,12.0,83,0.00,,OVC200,0.00,VWS V14.01,2013-03-11 19:40:00,
2013-03-11 15:45:00,55.1,50.0,30.06,South,181,6.0,11.0,83,0.00,,OVC200,0.00,VWS V14.01,2013-03-11 19:45:00,
2013-03-11 15:50:00,54.9,49.5,30.05,South,181,7.0,11.0,82,0.00,,OVC200,0.00,VWS V14.01,2013-03-11 19:50:00,
2013-03-11 15:55:00,54.5,49.5,30.05,SSE,158,9.0,12.0,83,0.00,,OVC200,0.00,VWS V14.01,2013-03-11 19:55:00,
2013-03-11 16:00:00,54.1,49.1,30.05,SSE,167,6.0,12.0,83,0.00,,OVC200,0.00,VWS V14.01,2013-03-11 20:00:00,
2013-03-11 16:16:00,52.9,48.5,30.04,SSE,165,7.0,12.0,85,0.00,,OVC200,0.00,VWS V14.01,2013-03-11 20:16:00,
2013-03-11 16:23:00,52.8,48.4,30.04,SSE,163,9.0,13.0,85,0.00,,OVC200,0.00,VWS V14.01,2013-03-11 20:23:00,
2013-03-11 16:28:00,52.2,47.8,30.03,SSE,162,12.0,12.0,85,0.00,,OVC200,0.00,VWS V14.01,2013-03-11 20:28:00,
2013-03-11 17:13:00,53.0,48.6,30.02,SSE,160,9.0,9.0,85,0.00,,,0.00,VWS V14.01,2013-03-11 21:13:00,
2013-03-11 17:18:00,52.8,48.4,30.01,South,169,9.0,12.0,85,0.00,,,0.00,VWS V14.01,2013-03-11 21:18:00,
2013-03-11 17:23:00,52.4,48.0,30.01,SSE,164,13.0,13.0,85,0.00,,OVC150,0.00,VWS V14.01,2013-03-11 21:23:00,
2013-03-11 17:28:00,52.2,48.2,30.00,SSE,156,12.0,13.0,86,0.00,,OVC150,0.00,VWS V14.01,2013-03-11 21:28:00,
2013-03-11 17:33:00,52.3,48.2,30.00,SSE,154,14.0,14.0,86,0.00,,OVC150,0.00,VWS V14.01,2013-03-11 21:33:00,
2013-03-11 17:38:00,52.6,48.5,30.00,SSE,154,14.0,16.0,86,0.00,,OVC150,0.00,VWS V14.01,2013-03-11 21:38:00,
2013-03-11 17:53:00,52.0,47.6,30.00,SSE,152,9.0,12.0,85,0.00,,OVC150,0.00,VWS V14.01,2013-03-11 21:53:00,
2013-03-11 17:59:00,51.7,48.0,30.00,SSE,155,8.0,11.0,87,0.00,,OVC150,0.00,VWS V14.01,2013-03-11 21:59:00,
2013-03-11 18:04:00,51.4,47.7,30.00,SE,143,9.0,10.0,87,0.00,,OVC150,0.00,VWS V14.01,2013-03-11 22:04:00,
2013-03-11 18:09:00,51.1,47.4,30.01,SSE,159,9.0,10.0,87,0.00,,OVC150,0.00,VWS V14.01,2013-03-11 22:09:00,
2013-03-11 18:14:00,50.9,47.5,30.00,SSE,150,10.0,11.0,88,0.00,,OVC150,0.00,VWS V14.01,2013-03-11 22:14:00,
2013-03-11 18:19:00,51.0,47.6,30.00,SSE,155,11.0,12.0,88,0.00,,OVC150,0.00,VWS V14.01,2013-03-11 22:19:00,
2013-03-11 18:24:00,50.9,47.8,30.00,SSE,153,9.0,12.0,89,0.00,,OVC150,0.00,VWS V14.01,2013-03-11 22:24:00,
2013-03-11 18:29:00,50.8,47.7,30.00,SSE,156,9.0,13.0,89,0.00,,OVC150,0.00,VWS V14.01,2013-03-11 22:29:00,
2013-03-11 18:34:00,50.9,47.8,30.01,SSE,155,11.0,13.0,89,0.00,,OVC200,0.00,VWS V14.01,2013-03-11 22:34:00,
2013-03-11 18:39:00,50.8,47.7,30.01,SSE,148,11.0,13.0,89,0.00,,OVC200,0.00,VWS V14.01,2013-03-11 22:39:00,
2013-03-11 18:44:00,50.6,47.2,30.01,SE,136,11.0,13.0,88,0.00,,OVC200,0.00,VWS V14.01,2013-03-11 22:44:00,
2013-03-11 18:49:00,50.5,47.4,30.01,SE,141,12.0,14.0,89,0.00,,OVC200,0.00,VWS V14.01,2013-03-11 22:49:00,
2013-03-11 18:54:00,50.6,47.8,30.01,SE,145,12.0,14.0,90,0.00,,OVC200,0.00,VWS V14.01,2013-03-11 22:54:00,
2013-03-11 18:59:00,50.7,47.9,30.01,SSE,151,15.0,15.0,90,0.00,,OVC200,0.00,VWS V14.01,2013-03-11 22:59:00,
2013-03-11 19:04:00,50.7,47.6,30.00,SSE,150,14.0,14.0,89,0.00,,OVC200,0.00,VWS V14.01,2013-03-11 23:04:00,
2013-03-11 19:09:00,50.9,47.8,30.01,SSE,156,12.0,13.0,89,0.00,,OVC200,0.00,VWS V14.01,2013-03-11 23:09:00,
2013-03-11 19:14:00,50.8,47.7,30.01,SSE,152,12.0,13.0,89,0.00,,OVC200,0.00,VWS V14.01,2013-03-11 23:14:00,
2013-03-11 19:19:00,50.7,47.9,30.01,SSE,154,12.0,14.0,90,0.00,,OVC200,0.00,VWS V14.01,2013-03-11 23:19:00,
2013-03-11 19:24:00,50.7,47.6,30.01,SSE,158,10.0,14.0,89,0.00,,OVC200,0.00,VWS V14.01,2013-03-11 23:24:00,
2013-03-11 19:29:00,50.6,47.8,30.01,SSE,155,11.0,15.0,90,0.00,,OVC200,0.00,VWS V14.01,2013-03-11 23:29:00,
2013-03-11 19:34:00,50.5,47.7,30.00,SSE,148,11.0,13.0,90,0.00,,OVC150,0.00,VWS V14.01,2013-03-11 23:34:00,
2013-03-11 19:39:00,50.4,47.6,30.00,SSE,152,9.0,11.0,90,0.00,,OVC150,0.00,VWS V14.01,2013-03-11 23:39:00,
2013-03-11 19:44:00,50.2,47.7,29.99,SE,144,15.0,16.0,91,0.00,,OVC150,0.00,VWS V14.01,2013-03-11 23:44:00,
2013-03-11 19:49:00,50.3,47.8,29.98,SSE,148,15.0,15.0,91,0.00,,OVC150,0.00,VWS V14.01,2013-03-11 23:49:00,
2013-03-11 19:54:00,50.3,47.8,29.98,SSE,148,16.0,16.0,91,0.00,,OVC150,0.00,VWS V14.01,2013-03-11 23:54:00,
2013-03-11 19:59:00,50.4,47.6,29.98,SE,146,13.0,16.0,90,0.00,,OVC150,0.00,VWS V14.01,2013-03-11 23:59:00,
2013-03-11 20:04:00,50.4,47.6,29.98,SE,129,12.0,14.0,90,0.00,,OVC150,0.00,VWS V14.01,2013-03-12 00:04:00,
2013-03-11 20:09:00,50.3,47.5,29.97,SE,145,13.0,14.0,90,0.00,,OVC150,0.00,VWS V14.01,2013-03-12 00:09:00,
2013-03-11 20:14:00,50.4,47.6,29.97,SE,141,13.0,16.0,90,0.00,,OVC150,0.00,VWS V14.01,2013-03-12 00:14:00,
2013-03-11 20:19:00,50.4,47.6,29.97,SSE,150,14.0,17.0,90,0.00,,OVC150,0.00,VWS V14.01,2013-03-12 00:19:00,
2013-03-11 20:24:00,50.6,47.5,29.97,SE,146,14.0,15.0,89,0.00,,OVC150,0.00,VWS V14.01,2013-03-12 00:24:00,
2013-03-11 20:29:00,50.6,47.5,29.97,SSE,159,17.0,18.0,89,0.00,,OVC150,0.00,VWS V14.01,2013-03-12 00:29:00,
2013-03-11 20:34:00,50.6,47.5,29.98,SSE,159,14.0,19.0,89,0.00,,OVC150,0.00,VWS V14.01,2013-03-12 00:34:00,
2013-03-11 20:39:00,50.5,47.1,29.98,SSE,158,13.0,16.0,88,0.00,,OVC150,0.00,VWS V14.01,2013-03-12 00:39:00,
2013-03-11 20:44:00,50.6,47.2,29.98,SSE,150,13.0,15.0,88,0.00,,OVC150,0.00,VWS V14.01,2013-03-12 00:44:00,
2013-03-11 20:49:00,50.6,47.2,29.98,SSE,163,13.0,17.0,88,0.00,,OVC150,0.00,VWS V14.01,2013-03-12 00:49:00,
2013-03-11 20:54:00,50.6,47.2,29.98,SSE,159,14.0,16.0,88,0.00,,OVC150,0.00,VWS V14.01,2013-03-12 00:54:00,
2013-03-11 20:59:00,50.5,47.1,29.98,SSE,152,12.0,13.0,88,0.00,,OVC150,0.00,VWS V14.01,2013-03-12 00:59:00,
2013-03-11 21:04:00,50.4,47.0,29.98,SSE,156,14.0,15.0,88,0.00,,OVC150,0.00,VWS V14.01,2013-03-12 01:04:00,
2013-03-11 21:09:00,50.2,46.8,29.98,SSE,149,10.0,15.0,88,0.00,,OVC150,0.00,VWS V14.01,2013-03-12 01:09:00,
2013-03-11 21:14:00,50.3,46.9,29.98,SSE,156,11.0,14.0,88,0.00,,OVC150,0.00,VWS V14.01,2013-03-12 01:14:00,
2013-03-11 21:19:00,50.2,46.8,29.98,SSE,157,12.0,12.0,88,0.00,,OVC150,0.00,VWS V14.01,2013-03-12 01:19:00,
2013-03-11 21:24:00,50.2,46.8,29.98,SE,146,13.0,13.0,88,0.00,,OVC150,0.00,VWS V14.01,2013-03-12 01:24:00,
2013-03-11 21:29:00,50.2,46.8,29.98,SSE,153,8.0,12.0,88,0.00,,OVC150,0.00,VWS V14.01,2013-03-12 01:29:00,
2013-03-11 21:34:00,50.4,47.0,29.98,SSE,161,11.0,15.0,88,0.00,,OVC150,0.00,VWS V14.01,2013-03-12 01:34:00,
2013-03-11 21:39:00,50.8,47.1,29.98,SSE,163,15.0,17.0,87,0.00,,OVC150,0.00,VWS V14.01,2013-03-12 01:39:00,
2013-03-11 21:44:00,51.0,47.3,29.99,SSE,165,13.0,15.0,87,0.00,,OVC150,0.00,VWS V14.01,2013-03-12 01:44:00,
2013-03-11 21:49:00,50.8,46.8,29.99,SSE,163,10.0,10.0,86,0.00,,OVC150,0.00,VWS V14.01,2013-03-12 01:49:00,
2013-03-11 21:54:00,50.8,47.1,29.99,South,174,6.0,14.0,87,0.00,,OVC150,0.00,VWS V14.01,2013-03-12 01:54:00,
2013-03-11 21:59:00,50.9,46.6,29.99,South,173,11.0,13.0,85,0.00,,OVC150,0.00,VWS V14.01,2013-03-12 01:59:00,
2013-03-11 22:05:00,51.1,46.8,30.00,South,175,14.0,16.0,85,0.00,,OVC150,0.00,VWS V14.01,2013-03-12 02:05:00,
2013-03-11 22:10:00,51.2,46.8,30.00,South,177,14.0,16.0,85,0.00,,OVC150,0.00,VWS V14.01,2013-03-12 02:10:00,
2013-03-11 22:28:00,51.4,47.0,30.00,South,177,18.0,19.0,85,0.00,,OVC150,0.00,VWS V14.01,2013-03-12 02:28:00,
2013-03-11 22:33:00,51.4,47.0,30.00,South,187,14.0,18.0,85,0.00,,OVC150,0.00,VWS V14.01,2013-03-12 02:33:00,
2013-03-11 22:38:00,51.5,47.2,29.99,South,173,12.0,21.0,85,0.00,,OVC150,0.00,VWS V14.01,2013-03-12 02:38:00,
2013-03-11 22:43:00,51.5,47.2,29.99,South,169,16.0,16.0,85,0.00,,OVC150,0.00,VWS V14.01,2013-03-12 02:43:00,
2013-03-11 22:48:00,51.4,47.0,30.00,South,189,9.0,12.0,85,0.00,,OVC150,0.00,VWS V14.01,2013-03-12 02:48:00,
2013-03-11 22:53:00,51.3,47.0,30.00,SSW,207,10.0,14.0,85,0.00,,OVC150,0.00,VWS V14.01,2013-03-12 02:53:00,
2013-03-11 22:58:00,51.2,47.2,29.99,SSW,196,16.0,16.0,86,0.00,,OVC150,0.00,VWS V14.01,2013-03-12 02:58:00,
2013-03-11 23:03:00,51.2,47.2,30.00,South,172,11.0,15.0,86,0.00,,OVC150,0.00,VWS V14.01,2013-03-12 03:03:00,
2013-03-11 23:08:00,51.2,47.2,29.99,South,181,13.0,17.0,86,0.00,,OVC150,0.00,VWS V14.01,2013-03-12 03:08:00,
2013-03-11 23:13:00,50.8,46.8,29.99,South,184,11.0,13.0,86,0.00,,OVC150,0.00,VWS V14.01,2013-03-12 03:13:00,
2013-03-11 23:18:00,50.7,46.7,29.99,South,170,13.0,13.0,86,0.00,,OVC150,0.00,VWS V14.01,2013-03-12 03:18:00,
2013-03-11 23:23:00,50.6,46.9,29.99,South,175,11.0,18.0,87,0.00,,OVC150,0.00,VWS V14.01,2013-03-12 03:23:00,
2013-03-11 23:28:00,50.6,46.9,29.99,South,175,12.0,17.0,87,0.00,,OVC150,0.00,VWS V14.01,2013-03-12 03:28:00,
2013-03-11 23:33:00,50.7,47.0,29.98,SSE,161,12.0,17.0,87,0.00,,BKN070,0.00,VWS V14.01,2013-03-12 03:33:00,
2013-03-11 23:38:00,50.6,46.6,29.98,South,178,14.0,18.0,86,0.00,,BKN070,0.00,VWS V14.01,2013-03-12 03:38:00,
2013-03-11 23:43:00,50.6,46.9,29.98,SSE,167,12.0,18.0,87,0.00,,BKN070,0.00,VWS V14.01,2013-03-12 03:43:00,
2013-03-11 23:48:00,50.5,46.5,29.97,SSE,167,10.0,16.0,86,0.00,,BKN070,0.00,VWS V14.01,2013-03-12 03:48:00,
2013-03-11 23:53:00,50.2,46.5,29.96,South,173,12.0,17.0,87,0.00,,BKN070,0.00,VWS V14.01,2013-03-12 03:53:00,
2013-03-11 23:58:00,50.4,47.0,29.96,South,169,15.0,16.0,88,0.00,,BKN070,0.00,VWS V14.01,2013-03-12 03:58:00,